Find Eutelsat W4

NORAD ID: 26369 Int'l Des: 2000-028 Owner: EUTEL Country: I-EUT operational
HEOCIRCULAR

リアルタイム位置

3D地球を読み込み中...

Eutelsat W4について

説明を読み込み中...

次回通過

Passes for default location (London). Set your location on the main map for personalized predictions.

高度履歴

Loading altitude history...

軌道要素

1 26369U 00028A 26104.60147355 .00000034 00000-0 00000-0 0 9997
2 26369 8.4331 62.5576 0011557 269.8618 163.7868 0.98467343 94508
Epoch: Apr 14, 2026 • Age: 9 hours

現在のステータス

高度 36284.1 km
速度 3.06 km/s
衛星直下点 -2.74°S, 74.28°E
打ち上げ日 May 24, 2000
運用期間 25.8 years
タイプ other

技術仕様

分類 Payload
質量 3190.00 kg
乾燥質量 1285.00 kg
総質量 3190.00 kg
長さ 4.60 m
直径 2.50 m
スパン 29.00 m
形状 Box + 2 Pan
製造者 ALC
バスタイプ Spacebus 3000B2
フェーズステータス Renamed
所有者/国 EUTEL/I-EUT

Most Searched